AD8AK Weather Reports


Display with metric or nautical units.
time (UTC)temp
F
wind
direction
speed
MPH
gust
MPH
rain 1hr
in
rain 24hr
in
rain mn
in
humidity
%
barometer
mb
20260503045637 35 276 0.0 0.0 0.00 0.00 0.00 80 1017.0
20260503045134 35 276 0.0 0.0 0.00 0.00 0.00 79 1016.9
20260503044631 35 276 0.0 0.0 0.00 0.00 0.00 79 1016.9
20260503044129 36 276 0.0 0.0 0.00 0.00 0.00 78 1017.2
20260503043625 36 276 0.0 0.0 0.00 0.00 0.00 77 1017.0
20260503043122 36 276 0.0 0.0 0.00 0.00 0.00 77 1016.9
20260503042619 36 276 0.0 0.0 0.00 0.00 0.00 76 1016.8
20260503042114 36 276 0.0 0.0 0.00 0.00 0.00 76 1016.8
20260503041611 37 276 0.0 0.0 0.00 0.00 0.00 76 1017.1
20260503041109 37 276 0.0 0.0 0.00 0.00 0.00 74 1016.9
20260503040606 37 276 0.0 0.0 0.00 0.00 0.00 73 1016.9
20260503040103 37 276 0.0 0.0 0.00 0.00 0.00 73 1017.1
20260503035600 38 276 0.0 0.0 0.00 0.00 0.00 73 1017.0
20260503035058 38 276 0.0 0.0 0.00 0.00 0.00 73 1017.0
20260503034555 38 276 0.0 0.0 0.00 0.00 0.00 72 1017.0
20260503034052 38 276 0.0 0.0 0.00 0.00 0.00 72 1017.1
20260503033549 38 276 0.0 0.0 0.00 0.00 0.00 71 1017.0
20260503033047 39 276 0.0 0.0 0.00 0.00 0.00 71 1017.1
20260503032545 39 276 0.0 0.0 0.00 0.00 0.00 70 1017.0
20260503032043 39 276 0.0 0.0 0.00 0.00 0.00 70 1016.9
20260503031540 39 276 0.0 0.0 0.00 0.00 0.00 70 1017.0
20260503031037 40 276 0.0 0.0 0.00 0.00 0.00 70 1017.1
20260503030533 40 276 0.0 0.0 0.00 0.00 0.00 69 1017.1
20260503030031 40 276 0.0 0.0 0.00 0.00 0.00 69 1017.0
20260503025527 40 276 0.0 0.0 0.00 0.00 0.00 68 1017.1
20260503025025 40 276 0.0 0.0 0.00 0.00 0.00 68 1017.3
20260503024521 41 276 0.0 0.0 0.00 0.00 0.00 68 1017.3
20260503024018 41 276 0.0 0.0 0.00 0.00 0.00 67 1017.1
20260503023515 41 276 0.0 0.0 0.00 0.00 0.00 67 1017.2
20260503023013 41 276 0.0 0.0 0.00 0.00 0.00 67 1017.2
20260503022508 41 277 0.0 0.0 0.00 0.00 0.00 66 1017.3
20260503022003 41 277 0.0 0.0 0.00 0.00 0.00 66 1017.3
20260503021500 41 276 0.0 0.0 0.00 0.00 0.00 65 1017.3
20260503020957 42 277 0.0 0.0 0.00 0.00 0.00 66 1017.0
20260503020454 42 276 0.0 0.0 0.00 0.00 0.00 65 1017.1
20260503015951 42 277 0.0 0.0 0.00 0.00 0.00 65 1017.2
20260503015448 42 277 0.0 0.0 0.00 0.00 0.00 64 1017.2
20260503014944 42 277 0.0 0.0 0.00 0.00 0.00 64 1017.0
20260503014441 42 277 0.0 0.0 0.00 0.00 0.00 64 1017.2
20260503013939 42 277 0.0 0.0 0.00 0.00 0.00 64 1017.1
20260503013436 42 277 0.0 0.0 0.00 0.00 0.00 63 1017.2
20260503012933 42 277 0.0 0.0 0.00 0.00 0.00 63 1017.1
20260503012431 42 277 0.0 0.0 0.00 0.00 0.00 63 1016.9
20260503011927 43 277 0.0 0.0 0.00 0.00 0.00 62 1016.9
20260503011424 43 277 0.0 0.0 0.00 0.00 0.00 60 1017.0
20260503010921 43 277 0.0 0.0 0.00 0.00 0.00 60 1017.1
20260503010418 43 277 0.0 0.0 0.00 0.00 0.00 59 1016.8
20260503005915 43 277 0.0 0.0 0.00 0.00 0.00 58 1017.2
20260503005412 43 277 0.0 0.0 0.00 0.00 0.00 57 1017.0
20260503004908 43 277 0.0 0.0 0.00 0.00 0.00 57 1017.0
20260503004405 44 277 0.0 0.0 0.00 0.00 0.00 55 1017.0
20260503003903 44 279 0.0 0.0 0.00 0.00 0.00 54 1016.9
20260503003359 45 295 0.0 0.0 0.00 0.00 0.00 52 1017.0
20260503002857 45 297 0.0 0.0 0.00 0.00 0.00 51 1016.9
20260503002354 45 295 0.0 0.0 0.00 0.00 0.00 50 1016.9
20260503001850 45 296 0.0 0.0 0.00 0.00 0.00 51 1016.9
20260503001346 46 296 0.0 0.0 0.00 0.00 0.00 50 1016.7
20260503000844 46 302 0.0 0.0 0.00 0.00 0.00 49 1016.8
20260503000341 46 289 0.0 0.0 0.00 0.00 0.00 47 1016.7
20260502235838 47 292 0.0 0.0 0.00 0.00 0.00 48 1016.7
20260502235335 47 297 1.0 2.0 0.00 0.00 0.00 46 1016.8
20260502234832 47 333 2.0 2.0 0.00 0.00 0.00 46 1016.9
20260502234329 47 289 0.0 1.0 0.00 0.00 0.00 47 1016.8
20260502233826 47 311 1.0 3.0 0.00 0.00 0.00 46 1016.9
20260502233322 47 285 0.0 1.0 0.00 0.00 0.00 47 1017.0
20260502232819 47 312 1.0 1.0 0.00 0.00 0.00 47 1016.9
20260502232316 47 334 1.0 2.0 0.00 0.00 0.00 47 1016.6
20260502231812 47 322 0.0 1.0 0.00 0.00 0.00 48 1016.7
20260502231310 47 354 0.0 1.0 0.00 0.00 0.00 47 1016.9
20260502230808 47 318 0.0 0.0 0.00 0.00 0.00 47 1016.9
20260502230306 47 321 0.0 2.0 0.00 0.00 0.00 46 1016.9
20260502225802 47 309 0.0 2.0 0.00 0.00 0.00 46 1016.9
20260502225259 47 314 1.0 3.0 0.00 0.00 0.00 45 1016.9
20260502224755 47 328 2.0 3.0 0.00 0.00 0.00 45 1016.8
20260502224252 47 16 2.0 4.0 0.00 0.00 0.00 45 1016.9
20260502223749 47 293 2.0 2.0 0.00 0.00 0.00 45 1017.0
20260502223248 47 0 1.0 4.0 0.00 0.00 0.00 47 1017.0
20260502222745 47 271 2.0 4.0 0.00 0.00 0.00 45 1016.8
20260502222242 47 331 0.0 2.0 0.00 0.00 0.00 46 1017.1
20260502221737 47 308 1.0 2.0 0.00 0.00 0.00 46 1017.1
20260502221234 47 282 1.0 2.0 0.00 0.00 0.00 45 1017.1
20260502220731 47 87 2.0 6.0 0.00 0.00 0.00 45 1017.0
20260502220227 47 336 2.0 4.0 0.00 0.00 0.00 44 1017.0
20260502215724 47 323 2.0 3.0 0.00 0.00 0.00 45 1017.1
20260502215221 47 345 2.0 3.0 0.00 0.00 0.00 47 1017.0
20260502214718 47 329 2.0 3.0 0.00 0.00 0.00 45 1017.0
20260502214215 47 279 3.0 3.0 0.00 0.00 0.00 47 1017.1
20260502213712 47 339 2.0 3.0 0.00 0.00 0.00 45 1017.0
20260502213210 47 328 2.0 3.0 0.00 0.00 0.00 49 1017.0
20260502212708 48 231 1.0 3.0 0.00 0.00 0.00 45 1016.9
20260502212206 47 327 2.0 3.0 0.00 0.00 0.00 47 1016.9
20260502211702 48 315 1.0 4.0 0.00 0.00 0.00 45 1016.9
20260502211159 47 347 1.0 4.0 0.00 0.00 0.00 45 1016.8
20260502210656 47 320 2.0 4.0 0.00 0.00 0.00 45 1016.8
20260502210153 47 326 1.0 3.0 0.00 0.00 0.00 45 1016.9
20260502205650 48 9 2.0 3.0 0.00 0.00 0.00 47 1017.0
20260502205147 48 292 3.0 4.0 0.00 0.00 0.00 48 1016.8
20260502204643 48 325 2.0 3.0 0.00 0.00 0.00 48 1016.9
20260502204141 48 324 2.0 6.0 0.00 0.00 0.00 47 1017.0
20260502203638 48 311 2.0 3.0 0.00 0.00 0.00 48 1016.9
20260502203137 48 340 2.0 3.0 0.00 0.00 0.00 47 1016.9
20260502202631 47 285 2.0 8.0 0.00 0.00 0.00 47 1017.1
20260502202129 47 338 2.0 6.0 0.00 0.00 0.00 48 1017.1
20260502201625 47 2 2.0 3.0 0.00 0.00 0.00 49 1017.0
20260502201116 47 312 3.0 4.0 0.00 0.00 0.00 50 1017.2
20260502200612 47 305 2.0 4.0 0.00 0.00 0.00 49 1017.2
20260502200110 47 307 1.0 2.0 0.00 0.00 0.00 49 1017.3
20260502195608 48 350 1.0 4.0 0.00 0.00 0.00 48 1017.4
20260502195103 48 344 2.0 6.0 0.00 0.00 0.00 47 1017.3
20260502194600 48 337 1.0 4.0 0.00 0.00 0.00 50 1017.4
20260502194056 47 324 1.0 4.0 0.00 0.00 0.00 49 1017.3
20260502193553 47 328 3.0 4.0 0.00 0.00 0.00 50 1017.4
20260502193050 47 309 1.0 6.0 0.00 0.00 0.00 48 1017.4
20260502192545 47 335 1.0 4.0 0.00 0.00 0.00 48 1017.4
20260502192043 47 7 1.0 2.0 0.00 0.00 0.00 49 1017.6
20260502191540 46 291 1.0 3.0 0.00 0.00 0.00 50 1017.3
20260502191038 47 3 4.0 4.0 0.00 0.00 0.00 50 1017.4
20260502190535 47 240 2.0 3.0 0.00 0.00 0.00 50 1017.6
20260502190032 48 346 1.0 3.0 0.00 0.00 0.00 48 1017.8
20260502185527 48 331 2.0 3.0 0.00 0.00 0.00 46 1017.8
20260502185024 48 109 0.0 1.0 0.00 0.00 0.00 50 1017.8
20260502184520 47 224 1.0 2.0 0.00 0.00 0.00 46 1017.6
20260502184016 47 345 3.0 6.0 0.00 0.00 0.00 47 1017.9
20260502183512 47 296 2.0 4.0 0.00 0.00 0.00 44 1018.0
20260502183008 47 345 2.0 3.0 0.00 0.00 0.00 46 1017.9
20260502182503 47 98 1.0 2.0 0.00 0.00 0.00 46 1017.8
20260502182000 47 260 2.0 4.0 0.00 0.00 0.00 46 1017.8
20260502181458 47 279 1.0 3.0 0.00 0.00 0.00 46 1017.9
20260502180956 48 347 2.0 4.0 0.00 0.00 0.00 48 1018.0
20260502180453 48 26 0.0 2.0 0.00 0.00 0.00 50 1017.6
20260502170412 45 341 4.0 6.0 0.00 0.00 0.00 54 1018.3
20260502163855 46 322 3.0 7.0 0.00 0.00 0.00 54 1018.6
20260502163351 45 326 2.0 3.0 0.00 0.00 0.00 53 1018.5
20260502162849 45 343 2.0 3.0 0.00 0.00 0.00 54 1018.4
20260502162345 45 78 1.0 6.0 0.00 0.00 0.00 55 1018.6
20260502161843 45 323 2.0 2.0 0.00 0.00 0.00 55 1018.7
20260502161339 45 322 4.0 6.0 0.00 0.00 0.00 54 1018.7
20260502160837 45 330 2.0 4.0 0.00 0.00 0.00 51 1018.6
20260502160335 45 0 1.0 3.0 0.00 0.00 0.00 56 1018.6
20260502152305 44 326 2.0 6.0 0.00 0.00 0.00 54 1018.6
20260502151802 44 319 1.0 4.0 0.00 0.00 0.00 57 1018.5
20260502151259 44 334 2.0 3.0 0.00 0.00 0.00 58 1018.3
20260502150757 44 320 4.0 6.0 0.00 0.00 0.00 57 1018.3
20260502150253 43 330 3.0 3.0 0.00 0.00 0.00 58 1018.5
20260502130642 42 331 0.0 3.0 0.00 0.00 0.00 73 1017.9
20260502130139 42 327 1.0 2.0 0.00 0.00 0.00 73 1017.6
20260502123625 40 324 0.0 2.0 0.00 0.00 0.00 76 1017.9
20260502123121 39 312 0.0 3.0 0.00 0.00 0.00 76 1017.8
20260502122618 39 314 1.0 4.0 0.00 0.00 0.00 75 1017.5
20260502122115 39 6 1.0 2.0 0.00 0.00 0.00 76 1017.5
20260502121613 38 314 1.0 4.0 0.00 0.00 0.00 75 1017.5
20260502121110 38 347 2.0 3.0 0.00 0.00 0.00 76 1017.5
20260502120606 38 333 0.0 2.0 0.00 0.00 0.00 76 1017.5
20260502115602 37 344 1.0 2.0 0.00 0.00 0.00 78 1017.5
20260502115102 36 305 2.0 2.0 0.00 0.00 0.00 79 1017.5
20260502114559 36 330 1.0 2.0 0.00 0.00 0.00 80 1017.6
20260502114055 35 354 1.0 2.0 0.00 0.00 0.00 81 1017.5
20260502113553 35 347 1.0 2.0 0.00 0.00 0.00 82 1017.4
20260502113051 35 329 1.0 2.0 0.00 0.00 0.00 82 1017.3
20260502112549 34 339 1.0 1.0 0.00 0.00 0.00 83 1017.3
20260502112046 34 336 0.0 3.0 0.00 0.00 0.00 83 1017.4
20260502111544 34 358 1.0 1.0 0.00 0.00 0.00 84 1017.2
20260502111041 34 321 0.0 1.0 0.00 0.00 0.00 84 1017.4
20260502110538 33 326 0.0 1.0 0.00 0.00 0.00 84 1017.2
20260502110036 33 351 0.0 1.0 0.00 0.00 0.00 84 1017.1
20260502105533 33 356 1.0 2.0 0.00 0.00 0.00 84 1017.1
20260502105031 33 313 0.0 0.0 0.00 0.00 0.00 84 1017.1
20260502104527 33 10 2.0 2.0 0.00 0.00 0.00 84 1017.1
20260502104025 33 336 1.0 2.0 0.00 0.00 0.00 83 1017.0
20260502103522 33 320 1.0 3.0 0.00 0.00 0.00 83 1017.0
20260502103021 33 319 0.0 1.0 0.00 0.00 0.00 83 1017.1
20260502102516 33 325 0.0 2.0 0.00 0.00 0.00 83 1017.0
20260502102014 33 316 1.0 2.0 0.00 0.00 0.00 82 1016.9
20260502101512 33 319 1.0 2.0 0.00 0.00 0.00 82 1016.8
20260502101010 33 321 2.0 3.0 0.00 0.00 0.00 81 1017.1
20260502100508 34 351 1.0 2.0 0.00 0.00 0.00 81 1016.9
20260502091442 34 313 2.0 3.0 0.00 0.00 0.00 78 1016.7
20260502090939 34 301 0.0 1.0 0.00 0.00 0.00 78 1016.8
20260502090436 35 287 0.0 2.0 0.00 0.00 0.00 78 1016.5
20260502071331 36 314 1.0 3.0 0.00 0.00 0.00 76 1016.5
20260502070829 36 306 0.0 1.0 0.00 0.00 0.00 76 1016.5
20260502070326 37 346 0.0 1.0 0.00 0.00 0.00 76 1016.5
20260502065825 37 284 0.0 2.0 0.00 0.00 0.00 76 1016.8
20260502065323 37 284 1.0 2.0 0.00 0.00 0.00 75 1016.6
20260502064821 37 247 1.0 4.0 0.00 0.00 0.00 75 1016.7
20260502064318 37 344 2.0 3.0 0.00 0.00 0.00 74 1016.7
20260502063815 37 349 0.0 2.0 0.00 0.00 0.00 74 1016.5
20260502063313 37 329 0.0 1.0 0.00 0.00 0.00 74 1016.7
20260502062810 37 321 2.0 2.0 0.00 0.00 0.00 74 1016.5
20260502062308 38 348 1.0 1.0 0.00 0.00 0.00 73 1016.7
20260502061806 38 315 2.0 3.0 0.00 0.00 0.00 73 1016.8
20260502061304 38 318 1.0 2.0 0.00 0.00 0.00 72 1016.7
20260502060759 38 332 2.0 3.0 0.00 0.00 0.00 72 1016.7
20260502060254 38 310 2.0 2.0 0.00 0.00 0.00 71 1016.9
20260502055753 38 0 1.0 2.0 0.00 0.00 0.00 71 1016.7
20260502055250 38 331 2.0 3.0 0.00 0.00 0.00 71 1016.5
20260502054749 38 331 2.0 6.0 0.00 0.00 0.00 70 1016.8
20260502054246 39 325 2.0 3.0 0.00 0.00 0.00 70 1016.7
20260502053744 39 354 5.0 6.0 0.00 0.00 0.00 70 1016.7
20260502053241 39 357 0.0 2.0 0.00 0.00 0.00 70 1016.7
20260502052739 39 309 1.0 3.0 0.00 0.00 0.00 69 1016.7
20260502052237 39 336 2.0 2.0 0.00 0.00 0.00 70 1016.7
20260502051734 39 317 2.0 3.0 0.00 0.00 0.00 69 1016.6
20260502051233 39 313 2.0 3.0 0.00 0.00 0.00 69 1016.7
20260502050728 39 347 1.0 3.0 0.00 0.00 0.00 69 1016.6
20260502050225 39 314 0.0 3.0 0.00 0.00 0.00 69 1016.9